Weather History for Rifle, CO

Change the Weather History Date:

Wednesday, August 14, 2013

  Actual Average Record
Temperature  
Mean Temperature 68 °F 71 °F  
Max Temperature 86 °F 89 °F 100 °F (1940)
Min Temperature 49 °F 54 °F 41 °F (1950)
Degree Days  
Heating Degree Days 0 0  
Month to date heating degree days 0 0  
Since 1 June heating degree days 13 60  
Since 1 July heating degree days 0 1  
Cooling Degree Days 3 6  
Month to date cooling degree days 65 101  
Year to date cooling degree days 562 444  
Since 1 June cooling degree days 555 437  
Growing Degree Days 18 (Base 50)    
Moisture  
Dew Point 36 °F    
Average Humidity 39    
Maximum Humidity 66    
Minimum Humidity 12    
Precipitation  
Precipitation 0.00 in 0.04 in 0.60 in (1934)
Month to date precipitation 0.06 0.64  
Year to date precipitation 4.82 8.21  
Sea Level Pressure  
Sea Level Pressure 30.06 in    
Wind  
Wind Speed 5 mph (NW)    
Max Wind Speed 32 mph    
Max Gust Speed 40 mph    
Visibility 10 miles    
Events Thunderstorm    
T = Trace of Precipitation, MM = Missing Value Source: NWS Daily Summary

Daily Weather History Graph

Daily Weather History Graph

Search for Another Location

Airport:

Trip Planner

Search our weather history database for the weather conditions in past years. The results will help you decide how hot, cold, wet, or windy it might be!

Date:

Astronomy

Aug. 14, 2013 Rise Set
Actual Time 6:22 AM MDT 8:07 PM MDT
Civil Twilight 5:53 AM MDT 8:36 PM MDT
Nautical Twilight 5:18 AM MDT 9:11 PM MDT
Astronomical Twilight 4:41 AM MDT 9:48 PM MDT
Moon 2:22 PM MDT (8/14) No Moon Set
Length of Visible Light 14h 42m
Length of Day
13h 44m
First Quarter, 53% of the Moon is Illuminated
Aug 14
First Quarter
Aug 20
Full
Aug 28
Last Quarter
Sep 5
New
Sep 12
First Quarter

Hourly Weather History & Observations

Time (MDT) Temp. Dew Point Humidity Pressure Visibility Wind Dir Wind Speed Gust Speed Precip Events Conditions
12:53 AM 57.0 °F 36.0 °F 45% 30.07 in 10.0 mi SE 3.5 mph - N/A   Clear
1:53 AM 57.0 °F 37.0 °F 47% 30.07 in 10.0 mi Calm Calm - N/A   Clear
2:53 AM 55.0 °F 37.9 °F 53% 30.09 in 10.0 mi Calm Calm - N/A   Clear
3:53 AM 53.1 °F 39.0 °F 59% 30.10 in 10.0 mi ESE 3.5 mph - N/A   Clear
4:53 AM 52.0 °F 37.0 °F 57% 30.10 in 10.0 mi Calm Calm - N/A   Clear
5:53 AM 52.0 °F 37.0 °F 57% 30.11 in 10.0 mi Calm Calm - N/A   Clear
6:53 AM 50.0 °F 37.9 °F 63% 30.15 in 10.0 mi SE 4.6 mph - N/A   Clear
7:53 AM 53.1 °F 43.0 °F 69% 30.15 in 10.0 mi Calm Calm - N/A   Clear
8:53 AM 61.0 °F 42.1 °F 50% 30.13 in 10.0 mi ENE 3.5 mph - N/A   Clear
9:53 AM 66.9 °F 43.0 °F 42% 30.12 in 10.0 mi Calm Calm - N/A   Clear
10:53 AM 73.0 °F 42.1 °F 33% 30.09 in 10.0 mi West 3.5 mph - N/A   Clear
11:53 AM 80.1 °F 42.1 °F 26% 30.04 in 10.0 mi NNE 4.6 mph - N/A   Clear
12:53 PM 82.9 °F 37.0 °F 19% 30.03 in 10.0 mi Variable 3.5 mph - N/A   Clear
1:53 PM 82.9 °F 41.0 °F 23% 30.00 in 10.0 mi North 5.8 mph - N/A   Clear
2:53 PM 84.9 °F 28.9 °F 13% 29.99 in 10.0 mi West 12.7 mph 16.1 mph N/A   Clear
3:15 PM 86.0 °F 28.4 °F 12% 30.19 in 10.0 mi West 13.8 mph - N/A Thunderstorm Clear
3:31 PM 84.2 °F 30.2 °F 14% 30.18 in 10.0 mi West 27.6 mph 34.5 mph N/A   Clear
3:53 PM 84.0 °F 30.0 °F 14% 29.99 in 10.0 mi WSW 12.7 mph 29.9 mph N/A   Clear
4:53 PM 84.0 °F 28.9 °F 14% 29.99 in 10.0 mi WNW 9.2 mph - N/A   Clear
5:53 PM 86.0 °F 28.0 °F 12% 29.96 in 10.0 mi West 8.1 mph - N/A   Clear
6:53 PM 84.0 °F 30.0 °F 14% 29.97 in 10.0 mi WNW 5.8 mph - N/A   Clear
7:53 PM 78.1 °F 36.0 °F 22% 29.99 in 10.0 mi NNE 4.6 mph - N/A   Clear
8:53 PM 75.9 °F 33.1 °F 21% 29.98 in 10.0 mi SE 5.8 mph - N/A   Clear
9:53 PM 68.0 °F 33.1 °F 27% 30.01 in 10.0 mi SE 10.4 mph - N/A   Clear
10:53 PM 64.9 °F 36.0 °F 34% 30.01 in 10.0 mi ESE 5.8 mph - N/A   Clear
11:53 PM 63.0 °F 35.1 °F 35% 30.01 in 10.0 mi ENE 3.5 mph - N/A   Clear